| time (UTC) | temp C | wind direction | speed KPH | gust KPH | rain 1hr cm | rain 24hr cm | rain mn cm | humidity % | barometer mb |
| 20260831011552 | 21 | 80 | 0.0 | 0.0 | 0.00 | 0.05 | 0.05 | 58 | 1007.0 |
| 20260831010055 | 22 | 80 | 0.0 | 0.0 | 0.00 | 0.05 | 0.05 | 55 | 1007.0 |
| 20260831004552 | 22 | 80 | 0.0 | 0.0 | 0.00 | 0.05 | 0.05 | 54 | 1007.0 |
| 20260831003052 | 22 | 80 | 0.0 | 0.0 | 0.00 | 0.05 | 0.05 | 52 | 1007.2 |
| 20260831001551 | 22 | 78 | 0.0 | 0.0 | 0.00 | 0.05 | 0.05 | 51 | 1007.1 |
| 20260831000058 | 22 | 74 | 0.0 | 3.2 | 0.00 | 0.05 | 0.05 | 51 | 1007.0 |
| 20260830234555 | 22 | 65 | 0.0 | 3.2 | 0.00 | 0.05 | 0.05 | 50 | 1007.1 |
| 20260830233059 | 22 | 136 | 0.0 | 1.6 | 0.00 | 0.05 | 0.05 | 52 | 1006.9 |
| 20260830231549 | 22 | 116 | 0.0 | 0.0 | 0.00 | 0.05 | 0.05 | 50 | 1006.5 |
| 20260830230048 | 22 | 69 | 0.0 | 0.0 | 0.00 | 0.05 | 0.05 | 51 | 1006.4 |
| 20260830224548 | 22 | 93 | 0.0 | 0.0 | 0.00 | 0.05 | 0.05 | 50 | 1006.5 |
| 20260830223050 | 22 | 93 | 0.0 | 0.0 | 0.00 | 0.05 | 0.05 | 50 | 1006.7 |
| 20260830221550 | 22 | 193 | 0.0 | 0.0 | 0.00 | 0.05 | 0.05 | 46 | 1006.9 |
| 20260830220059 | 22 | 209 | 0.0 | 16.1 | 0.00 | 0.05 | 0.05 | 44 | 1007.1 |
| 20260830214547 | 20 | 281 | 8.0 | 20.9 | 0.00 | 0.08 | 0.05 | 49 | 1007.1 |
| 20260830213046 | 20 | 250 | 19.3 | 37.0 | 0.05 | 0.08 | 0.05 | 51 | 1007.1 |
| 20260830211549 | 19 | 239 | 3.2 | 25.7 | 0.05 | 0.08 | 0.05 | 55 | 1007.2 |
| 20260830210044 | 18 | 257 | 4.8 | 19.3 | 0.05 | 0.08 | 0.05 | 60 | 1007.4 |
| 20260830204554 | 19 | 267 | 8.0 | 24.1 | 0.05 | 0.08 | 0.05 | 61 | 1007.1 |
| 20260830203042 | 23 | 293 | 9.7 | 40.2 | 0.00 | 0.03 | 0.00 | 41 | 1007.2 |
| 20260830201548 | 26 | 288 | 3.2 | 17.7 | 0.00 | 0.03 | 0.00 | 42 | 1006.3 |
| 20260830200137 | 27 | 292 | 3.2 | 12.9 | 0.00 | 0.03 | 0.00 | 35 | 1005.7 |
| 20260830194540 | 28 | 263 | 0.0 | 6.4 | 0.00 | 0.03 | 0.00 | 36 | 1004.7 |
| 20260830193035 | 28 | 95 | 0.0 | 6.4 | 0.00 | 0.03 | 0.00 | 35 | 1004.3 |
| 20260830191612 | 27 | 134 | 0.0 | 8.0 | 0.00 | 0.03 | 0.00 | 35 | 1004.2 |
| 20260830190037 | 27 | 84 | 0.0 | 4.8 | 0.00 | 0.03 | 0.00 | 36 | 1004.3 |
| 20260830184536 | 27 | 120 | 1.6 | 16.1 | 0.00 | 0.03 | 0.00 | 36 | 1004.3 |
| 20260830183033 | 27 | 53 | 0.0 | 12.9 | 0.00 | 0.03 | 0.00 | 36 | 1004.5 |
| 20260830181530 | 27 | 92 | 0.0 | 16.1 | 0.00 | 0.03 | 0.00 | 36 | 1004.7 |
| 20260830180035 | 27 | 142 | 0.0 | 6.4 | 0.00 | 0.03 | 0.00 | 37 | 1004.9 |
| 20260830174531 | 27 | 99 | 0.0 | 11.3 | 0.00 | 0.03 | 0.00 | 35 | 1005.0 |
| 20260830173024 | 27 | 79 | 1.6 | 12.9 | 0.00 | 0.03 | 0.00 | 39 | 1005.2 |
| 20260830171523 | 26 | 101 | 0.0 | 11.3 | 0.00 | 0.03 | 0.00 | 39 | 1005.4 |
| 20260830170021 | 26 | 124 | 0.0 | 6.4 | 0.00 | 0.03 | 0.00 | 39 | 1005.4 |
| 20260830164517 | 26 | 116 | 0.0 | 3.2 | 0.00 | 0.03 | 0.00 | 44 | 1005.6 |
| 20260830163032 | 25 | 126 | 0.0 | 3.2 | 0.00 | 0.03 | 0.00 | 44 | 1005.5 |
| 20260830161513 | 24 | 223 | 0.0 | 8.0 | 0.00 | 0.03 | 0.00 | 42 | 1005.6 |
| 20260830160007 | 22 | 315 | 0.0 | 0.0 | 0.00 | 0.03 | 0.00 | 47 | 1005.7 |
| 20260830154502 | 21 | 308 | 0.0 | 0.0 | 0.00 | 0.03 | 0.00 | 49 | 1005.9 |
| 20260830153101 | 20 | 54 | 0.0 | 0.0 | 0.00 | 0.03 | 0.00 | 54 | 1005.8 |
| 20260830151553 | 20 | 256 | 0.0 | 0.0 | 0.00 | 0.03 | 0.00 | 62 | 1006.1 |
| 20260830150050 | 18 | 256 | 0.0 | 0.0 | 0.00 | 0.03 | 0.00 | 61 | 1006.2 |
| 20260830144559 | 18 | 256 | 0.0 | 0.0 | 0.00 | 0.03 | 0.00 | 67 | 1005.7 |
| 20260830143046 | 17 | 256 | 0.0 | 0.0 | 0.00 | 0.03 | 0.00 | 68 | 1005.5 |
| 20260830141543 | 17 | 256 | 0.0 | 0.0 | 0.00 | 0.03 | 0.00 | 69 | 1005.7 |
| 20260830140043 | 16 | 221 | 0.0 | 0.0 | 0.00 | 0.03 | 0.00 | 69 | 1005.8 |
| 20260830133051 | 15 | 221 | 0.0 | 0.0 | 0.00 | 0.03 | 0.00 | 70 | 1005.5 |
| 20260830131551 | 15 | 221 | 0.0 | 0.0 | 0.00 | 0.03 | 0.00 | 69 | 1005.3 |
| 20260830130055 | 14 | 221 | 0.0 | 0.0 | 0.00 | 0.03 | 0.00 | 68 | 1005.2 |
| 20260830124537 | 14 | 221 | 0.0 | 0.0 | 0.00 | 0.03 | 0.00 | 69 | 1005.2 |
| 20260830123037 | 14 | 221 | 0.0 | 0.0 | 0.00 | 0.03 | 0.00 | 67 | 1004.9 |
| 20260830121534 | 14 | 221 | 0.0 | 0.0 | 0.00 | 0.03 | 0.00 | 68 | 1004.6 |
| 20260830120044 | 14 | 221 | 0.0 | 0.0 | 0.00 | 0.03 | 0.00 | 67 | 1004.2 |
| 20260830114534 | 15 | 221 | 0.0 | 0.0 | 0.00 | 0.03 | 0.00 | 67 | 1004.1 |
| 20260830113030 | 15 | 221 | 0.0 | 0.0 | 0.00 | 0.03 | 0.00 | 68 | 1004.1 |
| 20260830111532 | 15 | 221 | 0.0 | 0.0 | 0.00 | 0.03 | 0.00 | 67 | 1004.2 |
| 20260830110031 | 15 | 221 | 0.0 | 0.0 | 0.00 | 0.03 | 0.00 | 66 | 1004.2 |
| 20260830104527 | 15 | 221 | 0.0 | 0.0 | 0.00 | 0.03 | 0.00 | 65 | 1004.2 |
| 20260830103029 | 15 | 221 | 0.0 | 0.0 | 0.00 | 0.03 | 0.00 | 66 | 1004.2 |
| 20260830101525 | 15 | 221 | 0.0 | 0.0 | 0.00 | 0.03 | 0.00 | 65 | 1004.2 |
| 20260830100030 | 15 | 221 | 0.0 | 0.0 | 0.00 | 0.03 | 0.00 | 65 | 1004.0 |
| 20260830094533 | 15 | 221 | 0.0 | 0.0 | 0.00 | 0.03 | 0.00 | 65 | 1004.1 |
| 20260830093031 | 15 | 221 | 0.0 | 0.0 | 0.00 | 0.03 | 0.00 | 64 | 1004.2 |
| 20260830091525 | 15 | 221 | 0.0 | 0.0 | 0.00 | 0.03 | 0.00 | 64 | 1004.1 |
| 20260830090020 | 15 | 221 | 0.0 | 0.0 | 0.00 | 0.03 | 0.00 | 65 | 1003.9 |
| 20260830084518 | 15 | 221 | 0.0 | 0.0 | 0.00 | 0.03 | 0.00 | 64 | 1004.2 |
| 20260830083018 | 15 | 221 | 0.0 | 0.0 | 0.00 | 0.03 | 0.00 | 64 | 1004.3 |
| 20260830081530 | 15 | 93 | 0.0 | 0.0 | 0.00 | 0.03 | 0.00 | 64 | 1004.3 |
| 20260830080014 | 15 | 93 | 0.0 | 0.0 | 0.00 | 0.03 | 0.00 | 63 | 1004.2 |
| 20260830074522 | 16 | 93 | 0.0 | 0.0 | 0.00 | 0.03 | 0.00 | 64 | 1004.4 |
| 20260830073012 | 16 | 93 | 0.0 | 0.0 | 0.00 | 0.03 | 0.00 | 63 | 1004.5 |
| 20260830071510 | 16 | 93 | 0.0 | 0.0 | 0.00 | 0.03 | 0.00 | 63 | 1004.2 |
| 20260830070007 | 16 | 93 | 0.0 | 0.0 | 0.00 | 0.03 | 0.00 | 63 | 1004.5 |
| 20260830064507 | 16 | 93 | 0.0 | 0.0 | 0.00 | 0.03 | 0.00 | 63 | 1004.8 |
| 20260830063104 | 16 | 93 | 0.0 | 0.0 | 0.00 | 0.03 | 0.00 | 65 | 1004.8 |
| 20260830061558 | 17 | 94 | 0.0 | 0.0 | 0.00 | 0.03 | 0.00 | 65 | 1005.2 |
| 20260830060057 | 17 | 94 | 0.0 | 0.0 | 0.00 | 0.03 | 0.00 | 62 | 1005.0 |
| 20260830054555 | 18 | 94 | 0.0 | 0.0 | 0.00 | 0.03 | 0.03 | 61 | 1005.2 |
| 20260830053055 | 18 | 94 | 0.0 | 0.0 | 0.00 | 0.03 | 0.03 | 59 | 1005.3 |
| 20260830051601 | 19 | 94 | 0.0 | 0.0 | 0.00 | 0.03 | 0.03 | 57 | 1005.4 |
| 20260830050054 | 19 | 94 | 0.0 | 0.0 | 0.00 | 0.03 | 0.03 | 57 | 1005.2 |
| 20260830044605 | 20 | 94 | 0.0 | 0.0 | 0.00 | 0.03 | 0.03 | 53 | 1005.4 |
| 20260830043052 | 20 | 94 | 0.0 | 0.0 | 0.00 | 0.03 | 0.03 | 51 | 1005.6 |
| 20260830041603 | 20 | 243 | 0.0 | 0.0 | 0.00 | 0.03 | 0.03 | 48 | 1005.7 |
| 20260830040054 | 20 | 254 | 3.2 | 14.5 | 0.00 | 0.03 | 0.03 | 47 | 1005.9 |
| 20260830034551 | 20 | 246 | 0.0 | 0.0 | 0.00 | 0.03 | 0.03 | 52 | 1005.9 |
| 20260830033050 | 21 | 190 | 0.0 | 0.0 | 0.00 | 0.03 | 0.03 | 48 | 1005.6 |
| 20260830031550 | 21 | 183 | 0.0 | 0.0 | 0.00 | 0.03 | 0.03 | 46 | 1005.7 |
| 20260830030048 | 22 | 183 | 0.0 | 0.0 | 0.00 | 0.03 | 0.03 | 46 | 1005.5 |
| 20260830024602 | 23 | 221 | 0.0 | 0.0 | 0.00 | 0.03 | 0.03 | 45 | 1005.5 |
| 20260830023108 | 23 | 221 | 0.0 | 0.0 | 0.00 | 0.03 | 0.03 | 45 | 1005.5 |
| 20260830021548 | 24 | 17 | 0.0 | 0.0 | 0.00 | 0.03 | 0.03 | 42 | 1005.4 |
| 20260830020052 | 25 | 80 | 0.0 | 0.0 | 0.00 | 0.03 | 0.03 | 39 | 1005.1 |
| 20260830014547 | 25 | 236 | 1.6 | 14.5 | 0.00 | 0.03 | 0.03 | 36 | 1004.4 |
| 20260830013049 | 26 | 240 | 3.2 | 20.9 | 0.00 | 0.03 | 0.03 | 34 | 1004.0 |